RYR38KW LIEO-LIMC

Flight info

Callsign RYR38KW
Flight time 1h 10m
Altitude 30000
Route OKIVA P980 DIKEL DCT RATAP DCT MEGER DCT ANAKI P860 DEVOX
Aircraft B38M/M-SDE1FGHILORVWXY/HB1

Departure

Time 2026-05-05 19:06
Airport Olbia Costa Smeralda Airport (LIEO)

Arrival

Time 2026-05-05 20:17
Airport Milan Malpensa International Airport (LIMC)
Time Latitude Longitude Altitude Speed Heading
2026-05-05 18:37 40.90172 9.51530 39 ft 0 kts 326°
2026-05-05 18:58 40.90166 9.51535 39 ft 4 kts 326°
2026-05-05 18:58 40.90147 9.51553 36 ft 4 kts 321°
2026-05-05 18:59 40.90134 9.51578 36 ft 4 kts 267°
2026-05-05 18:59 40.90143 9.51608 39 ft 2 kts 238°
2026-05-05 18:59 40.90146 9.51615 36 ft 0 kts 238°
2026-05-05 19:02 40.90146 9.51614 39 ft 1 kts 238°
2026-05-05 19:02 40.90126 9.51572 44 ft 12 kts 237°
2026-05-05 19:02 40.90075 9.51482 40 ft 10 kts 217°
2026-05-05 19:03 40.90031 9.51501 40 ft 12 kts 146°
2026-05-05 19:03 40.89938 9.51495 41 ft 15 kts 217°
2026-05-05 19:03 40.89872 9.51381 42 ft 16 kts 236°
2026-05-05 19:03 40.89803 9.51248 43 ft 18 kts 234°
2026-05-05 19:04 40.89727 9.51106 43 ft 19 kts 234°
2026-05-05 19:04 40.89651 9.50953 45 ft 20 kts 234°
2026-05-05 19:04 40.89568 9.50796 46 ft 21 kts 235°
2026-05-05 19:04 40.89483 9.50634 46 ft 20 kts 234°
2026-05-05 19:05 40.89416 9.50510 48 ft 15 kts 235°
2026-05-05 19:05 40.89333 9.50438 48 ft 13 kts 181°
2026-05-05 19:05 40.89279 9.50509 47 ft 12 kts 107°
2026-05-05 19:05 40.89268 9.50615 49 ft 11 kts 68°
2026-05-05 19:06 40.89392 9.50855 45 ft 67 kts 55°
2026-05-05 19:06 40.89792 9.51621 38 ft 133 kts 56°
2026-05-05 19:06 40.90404 9.52798 226 ft 167 kts 56°
2026-05-05 19:06 40.91058 9.54111 887 ft 171 kts 55°
2026-05-05 19:07 40.91747 9.55415 1562 ft 177 kts 57°
2026-05-05 19:07 40.92491 9.56815 2085 ft 196 kts 56°
2026-05-05 19:07 40.93322 9.58372 2555 ft 218 kts 56°
2026-05-05 19:07 40.94253 9.60114 2985 ft 246 kts 56°
2026-05-05 19:08 40.95270 9.62012 3789 ft 253 kts 56°
2026-05-05 19:08 40.96290 9.63916 4735 ft 258 kts 55°
2026-05-05 19:08 40.97625 9.65568 5318 ft 276 kts 27°
2026-05-05 19:08 40.99514 9.66194 5978 ft 285 kts 354°
2026-05-05 19:09 41.01377 9.65488 6973 ft 280 kts 327°
2026-05-05 19:09 41.03014 9.64055 7771 ft 285 kts 323°
2026-05-05 19:09 41.04672 9.62582 8696 ft 288 kts 323°
2026-05-05 19:09 41.06348 9.61083 9567 ft 292 kts 322°
2026-05-05 19:10 41.08002 9.59482 10334 ft 297 kts 312°
2026-05-05 19:10 41.09302 9.57285 10732 ft 312 kts 302°
2026-05-05 19:10 41.10615 9.54882 11104 ft 331 kts 303°
2026-05-05 19:10 41.11982 9.52389 11591 ft 343 kts 303°
2026-05-05 19:11 41.13380 9.49831 12425 ft 344 kts 302°
2026-05-05 19:11 41.14795 9.47240 13188 ft 348 kts 302°
2026-05-05 19:11 41.16215 9.44633 13970 ft 351 kts 302°
2026-05-05 19:11 41.17649 9.41999 14686 ft 354 kts 302°
2026-05-05 19:12 41.19105 9.39322 15354 ft 358 kts 301°
2026-05-05 19:12 41.20569 9.36629 16034 ft 362 kts 301°
2026-05-05 19:12 41.22048 9.33902 16699 ft 365 kts 300°
2026-05-05 19:12 41.23438 9.31057 17335 ft 368 kts 298°
2026-05-05 19:13 41.24830 9.28179 17985 ft 372 kts 298°
2026-05-05 19:13 41.26237 9.25285 18569 ft 375 kts 298°
2026-05-05 19:13 41.27659 9.22363 19151 ft 377 kts 298°
2026-05-05 19:13 41.29091 9.19420 19732 ft 380 kts 298°
2026-05-05 19:14 41.30516 9.16490 20294 ft 382 kts 299°
2026-05-05 19:14 41.32253 9.13768 20859 ft 392 kts 315°
2026-05-05 19:14 41.34594 9.11826 21456 ft 402 kts 333°
2026-05-05 19:14 41.37330 9.10894 22025 ft 413 kts 351°
2026-05-05 19:15 41.40222 9.10902 22592 ft 418 kts 357°
2026-05-05 19:15 41.43146 9.10985 23087 ft 422 kts 357°
2026-05-05 19:15 41.46093 9.11076 23544 ft 426 kts 358°
2026-05-05 19:15 41.49028 9.11170 23978 ft 428 kts 357°
2026-05-05 19:16 41.52020 9.11268 24365 ft 432 kts 357°
2026-05-05 19:16 41.55032 9.11328 24748 ft 434 kts 355°
2026-05-05 19:16 41.58059 9.11288 25089 ft 437 kts 354°
2026-05-05 19:16 41.61114 9.11258 25479 ft 439 kts 354°
2026-05-05 19:17 41.64180 9.11233 25848 ft 443 kts 354°
2026-05-05 19:17 41.67273 9.11211 26196 ft 446 kts 354°
2026-05-05 19:17 41.70396 9.11188 26576 ft 449 kts 353°
2026-05-05 19:17 41.73521 9.11166 26902 ft 452 kts 353°
2026-05-05 19:18 41.76674 9.11144 27263 ft 455 kts 353°
2026-05-05 19:18 41.79853 9.11121 27584 ft 457 kts 353°
2026-05-05 19:18 41.83046 9.11097 27902 ft 461 kts 353°
2026-05-05 19:18 41.86289 9.11074 27987 ft 471 kts 353°
2026-05-05 19:19 41.89607 9.11050 27924 ft 482 kts 353°
2026-05-05 19:19 41.92996 9.11026 27944 ft 492 kts 353°
2026-05-05 19:19 41.96451 9.11001 27955 ft 501 kts 354°
2026-05-05 19:19 41.99965 9.10975 27954 ft 507 kts 354°
2026-05-05 19:20 42.03368 9.10955 27956 ft 487 kts 354°
2026-05-05 19:20 42.06731 9.10930 27987 ft 472 kts 353°
2026-05-05 19:20 42.10004 9.10904 27998 ft 470 kts 354°
2026-05-05 19:20 42.13274 9.10879 27943 ft 469 kts 353°
2026-05-05 19:21 42.16491 9.10856 27938 ft 469 kts 353°
2026-05-05 19:21 42.19761 9.10832 27964 ft 470 kts 354°
2026-05-05 19:21 42.23032 9.10807 27967 ft 469 kts 353°
2026-05-05 19:21 42.26309 9.10784 28014 ft 470 kts 354°
2026-05-05 19:22 42.29580 9.10760 27930 ft 469 kts 354°
2026-05-05 19:22 42.32851 9.10736 27946 ft 469 kts 354°
2026-05-05 19:22 42.36123 9.10712 27988 ft 470 kts 353°
2026-05-05 19:22 42.39391 9.10689 27966 ft 469 kts 354°
2026-05-05 19:23 42.42657 9.10664 27960 ft 470 kts 354°
2026-05-05 19:23 42.45932 9.10641 27955 ft 470 kts 354°
2026-05-05 19:23 42.49207 9.10616 27955 ft 470 kts 354°
2026-05-05 19:23 42.52478 9.10592 27919 ft 469 kts 354°
2026-05-05 19:24 42.59000 9.10543 27974 ft 470 kts 354°
2026-05-05 19:24 42.62233 9.10520 27966 ft 469 kts 354°
2026-05-05 19:24 42.65498 9.10496 27956 ft 470 kts 354°
2026-05-05 19:25 42.68737 9.10473 27978 ft 462 kts 353°
2026-05-05 19:25 42.71974 9.10480 27949 ft 470 kts 357°
2026-05-05 19:25 42.75252 9.10906 27960 ft 475 kts 360°
2026-05-05 19:25 42.78545 9.11325 27949 ft 475 kts 359°
2026-05-05 19:26 42.81840 9.11717 27949 ft 475 kts 359°
2026-05-05 19:26 42.85141 9.12095 27952 ft 474 kts 359°
2026-05-05 19:26 42.88438 9.12469 27966 ft 476 kts 359°
2026-05-05 19:26 42.91747 9.12844 27954 ft 478 kts 359°
2026-05-05 19:27 42.95026 9.13216 27952 ft 478 kts 359°
2026-05-05 19:27 42.98384 9.13597 27959 ft 478 kts 359°
2026-05-05 19:27 43.01661 9.13970 27956 ft 478 kts 359°
2026-05-05 19:27 43.04973 9.14346 27950 ft 478 kts 359°
2026-05-05 19:28 43.08288 9.14724 27967 ft 478 kts 359°
2026-05-05 19:28 43.11610 9.15103 27954 ft 479 kts 359°
2026-05-05 19:28 43.14936 9.15482 27953 ft 479 kts 359°
2026-05-05 19:28 43.18250 9.15861 27957 ft 479 kts 359°
2026-05-05 19:29 43.21573 9.16240 27953 ft 479 kts 359°
2026-05-05 19:29 43.24893 9.16623 27959 ft 478 kts 359°
2026-05-05 19:29 43.28209 9.17000 27973 ft 479 kts 359°
2026-05-05 19:29 43.31534 9.17239 27938 ft 474 kts 350°
2026-05-05 19:30 43.34717 9.16463 27950 ft 459 kts 335°
2026-05-05 19:30 43.37748 9.15078 27946 ft 459 kts 334°
2026-05-05 19:30 43.40759 9.13631 27954 ft 458 kts 333°
2026-05-05 19:30 43.43758 9.12144 27968 ft 458 kts 333°
2026-05-05 19:31 43.46748 9.10633 27953 ft 458 kts 333°
2026-05-05 19:31 43.49735 9.09108 27968 ft 457 kts 332°
2026-05-05 19:31 43.52728 9.07573 27957 ft 459 kts 332°
2026-05-05 19:31 43.55733 9.06030 27953 ft 460 kts 332°
2026-05-05 19:32 43.58729 9.04490 27951 ft 461 kts 332°
2026-05-05 19:32 43.61731 9.02944 27950 ft 461 kts 332°
2026-05-05 19:32 43.64738 9.01394 27950 ft 461 kts 332°
2026-05-05 19:32 43.67711 8.99860 27968 ft 461 kts 332°
2026-05-05 19:33 43.70709 8.98312 27953 ft 460 kts 332°
2026-05-05 19:33 43.73707 8.96762 27947 ft 460 kts 332°
2026-05-05 19:33 43.76713 8.95206 27947 ft 460 kts 332°
2026-05-05 19:33 43.79713 8.93652 27947 ft 460 kts 332°
2026-05-05 19:34 43.82719 8.92092 27948 ft 460 kts 332°
2026-05-05 19:34 43.85719 8.90535 27946 ft 460 kts 332°
2026-05-05 19:34 43.88714 8.88978 27969 ft 460 kts 331°
2026-05-05 19:35 43.94677 8.85873 27951 ft 461 kts 331°
2026-05-05 19:35 43.97708 8.84294 27190 ft 463 kts 332°
2026-05-05 19:35 44.00692 8.82735 26369 ft 466 kts 332°
2026-05-05 19:35 44.03694 8.81169 25759 ft 452 kts 332°
2026-05-05 19:36 44.06565 8.79668 25526 ft 431 kts 332°
2026-05-05 19:36 44.09324 8.78222 25095 ft 417 kts 332°
2026-05-05 19:36 44.12015 8.76811 24555 ft 409 kts 332°
2026-05-05 19:36 44.14650 8.75428 24079 ft 400 kts 332°
2026-05-05 19:37 44.17220 8.74079 23641 ft 390 kts 333°
2026-05-05 19:37 44.19787 8.72912 23093 ft 389 kts 345°
2026-05-05 19:37 44.22503 8.72738 22570 ft 389 kts 358°
2026-05-05 19:37 44.25187 8.72830 22229 ft 384 kts 356°
2026-05-05 19:38 44.27856 8.72918 21926 ft 381 kts 356°
2026-05-05 19:38 44.30502 8.73018 21952 ft 381 kts 356°
2026-05-05 19:38 44.33131 8.73123 21972 ft 382 kts 357°
2026-05-05 19:38 44.35787 8.73234 21968 ft 382 kts 357°
2026-05-05 19:39 44.38444 8.73346 21967 ft 382 kts 357°
2026-05-05 19:39 44.41108 8.73460 21925 ft 383 kts 357°
2026-05-05 19:39 44.43771 8.73574 21544 ft 383 kts 357°
2026-05-05 19:39 44.46432 8.73689 21098 ft 383 kts 357°
2026-05-05 19:40 44.49091 8.73804 20717 ft 382 kts 357°
2026-05-05 19:40 44.51753 8.73919 20297 ft 382 kts 357°
2026-05-05 19:40 44.54404 8.74034 20007 ft 378 kts 357°
2026-05-05 19:40 44.57002 8.74147 19929 ft 369 kts 357°
2026-05-05 19:41 44.59566 8.74257 19992 ft 369 kts 357°
2026-05-05 19:41 44.62134 8.74369 19984 ft 369 kts 357°
2026-05-05 19:41 44.64700 8.74480 19959 ft 368 kts 357°
2026-05-05 19:41 44.67229 8.74590 19798 ft 370 kts 357°
2026-05-05 19:42 44.69795 8.74398 19289 ft 366 kts 341°
2026-05-05 19:42 44.72189 8.73286 18842 ft 362 kts 335°
2026-05-05 19:42 44.74566 8.72098 18399 ft 363 kts 335°
2026-05-05 19:42 44.76948 8.70890 17903 ft 364 kts 335°
2026-05-05 19:43 44.78552 8.70069 17565 ft 359 kts 335°
2026-05-05 19:43 44.80834 8.68894 17182 ft 348 kts 334°
2026-05-05 19:43 44.83075 8.67735 16810 ft 337 kts 334°
2026-05-05 19:43 44.85244 8.66612 16440 ft 327 kts 334°
2026-05-05 19:44 44.87350 8.65520 16089 ft 318 kts 334°
2026-05-05 19:44 44.89400 8.64456 15730 ft 310 kts 334°
2026-05-05 19:44 44.91398 8.63418 15369 ft 302 kts 334°
2026-05-05 19:44 44.93350 8.62403 15011 ft 294 kts 335°
2026-05-05 19:45 44.95255 8.61411 14656 ft 289 kts 335°
2026-05-05 19:45 44.97136 8.60431 14321 ft 288 kts 335°
2026-05-05 19:45 44.99017 8.59452 14038 ft 287 kts 335°
2026-05-05 19:45 45.00906 8.58630 13998 ft 283 kts 345°
2026-05-05 19:46 45.02808 8.58139 13966 ft 283 kts 345°
2026-05-05 19:46 45.04745 8.57610 13962 ft 283 kts 344°
2026-05-05 19:46 45.06677 8.57064 13969 ft 283 kts 344°
2026-05-05 19:46 45.08607 8.56519 13968 ft 283 kts 345°
2026-05-05 19:47 45.10542 8.55995 13969 ft 283 kts 345°
2026-05-05 19:47 45.12408 8.55200 13940 ft 275 kts 325°
2026-05-05 19:47 45.13785 8.53465 13936 ft 262 kts 297°
2026-05-05 19:47 45.14428 8.51120 13964 ft 254 kts 276°
2026-05-05 19:48 45.14674 8.48629 13989 ft 256 kts 273°
2026-05-05 19:48 45.14885 8.46127 13988 ft 256 kts 273°
2026-05-05 19:48 45.15086 8.43655 13966 ft 256 kts 272°
2026-05-05 19:48 45.14916 8.41198 13934 ft 249 kts 246°
2026-05-05 19:49 45.13942 8.39224 13940 ft 247 kts 219°
2026-05-05 19:49 45.12394 8.38186 13945 ft 252 kts 192°
2026-05-05 19:49 45.10624 8.38247 13971 ft 259 kts 174°
2026-05-05 19:49 45.08843 8.38701 13964 ft 261 kts 173°
2026-05-05 19:50 45.07051 8.39185 13937 ft 262 kts 173°
2026-05-05 19:50 45.05259 8.39672 13646 ft 263 kts 173°
2026-05-05 19:50 45.03483 8.40361 13233 ft 270 kts 155°
2026-05-05 19:50 45.02111 8.42206 12821 ft 281 kts 122°
2026-05-05 19:51 45.01635 8.44886 12401 ft 289 kts 89°
2026-05-05 19:51 45.02151 8.47651 11994 ft 294 kts 64°
2026-05-05 19:51 45.03312 8.49992 11542 ft 298 kts 43°
2026-05-05 19:51 45.05115 8.51467 11069 ft 298 kts 11°
2026-05-05 19:52 45.07145 8.51697 10651 ft 298 kts
2026-05-05 19:52 45.09227 8.51864 10234 ft 301 kts
2026-05-05 19:52 45.11330 8.52067 9812 ft 305 kts
2026-05-05 19:52 45.13459 8.52272 9359 ft 307 kts
2026-05-05 19:53 45.15602 8.52474 8951 ft 308 kts
2026-05-05 19:53 45.17747 8.52672 8555 ft 309 kts
2026-05-05 19:53 45.19893 8.52867 8165 ft 309 kts
2026-05-05 19:53 45.22035 8.52879 7769 ft 308 kts 350°
2026-05-05 19:54 45.24121 8.52285 7404 ft 302 kts 347°
2026-05-05 19:54 45.26132 8.51702 7169 ft 288 kts 347°
2026-05-05 19:54 45.28057 8.51154 6943 ft 275 kts 348°
2026-05-05 19:54 45.29884 8.50766 6707 ft 264 kts
2026-05-05 19:55 45.31600 8.51428 6444 ft 253 kts 32°
2026-05-05 19:55 45.32825 8.53123 6194 ft 245 kts 60°
2026-05-05 19:55 45.33420 8.55373 6045 ft 244 kts 79°
2026-05-05 19:55 45.33799 8.57683 6043 ft 231 kts 79°
2026-05-05 19:56 45.34141 8.59879 6058 ft 226 kts 80°
2026-05-05 19:56 45.34429 8.62064 6008 ft 223 kts 90°
2026-05-05 19:56 45.34136 8.64155 5959 ft 215 kts 121°
2026-05-05 19:56 45.33186 8.65734 5970 ft 211 kts 148°
2026-05-05 19:57 45.31852 8.66572 5993 ft 210 kts 168°
2026-05-05 19:57 45.30432 8.67087 6006 ft 211 kts 167°
2026-05-05 19:57 45.29005 8.67570 5998 ft 211 kts 168°
2026-05-05 19:57 45.27569 8.68022 6006 ft 211 kts 169°
2026-05-05 19:58 45.26130 8.68452 6001 ft 211 kts 169°
2026-05-05 19:58 45.24693 8.68871 5995 ft 211 kts 169°
2026-05-05 19:58 45.23252 8.69282 5993 ft 211 kts 169°
2026-05-05 19:58 45.21807 8.69689 5993 ft 211 kts 170°
2026-05-05 19:59 45.20364 8.70091 5986 ft 211 kts 170°
2026-05-05 19:59 45.18942 8.70484 5962 ft 211 kts 170°
2026-05-05 19:59 45.17498 8.70883 5972 ft 211 kts 170°
2026-05-05 19:59 45.16058 8.71279 5967 ft 211 kts 170°
2026-05-05 20:00 45.14613 8.71676 5961 ft 211 kts 170°
2026-05-05 20:00 45.13167 8.72074 5964 ft 211 kts 170°
2026-05-05 20:00 45.11723 8.72470 5967 ft 211 kts 170°
2026-05-05 20:00 45.10281 8.72864 5966 ft 211 kts 170°
2026-05-05 20:01 45.08837 8.73260 5969 ft 211 kts 170°
2026-05-05 20:01 45.07397 8.73663 5972 ft 211 kts 169°
2026-05-05 20:01 45.05955 8.74084 5964 ft 211 kts 169°
2026-05-05 20:01 45.04516 8.74505 5968 ft 211 kts 169°
2026-05-05 20:02 45.03076 8.74928 5964 ft 211 kts 169°
2026-05-05 20:02 45.01639 8.75350 5963 ft 211 kts 169°
2026-05-05 20:02 45.00205 8.75769 5965 ft 211 kts 169°
2026-05-05 20:02 44.98766 8.76189 5960 ft 211 kts 169°
2026-05-05 20:03 44.97326 8.76612 5966 ft 211 kts 169°
2026-05-05 20:03 44.95981 8.77327 5924 ft 212 kts 144°
2026-05-05 20:03 44.95110 8.78978 5907 ft 215 kts 110°
2026-05-05 20:03 44.95048 8.81092 5912 ft 222 kts 77°
2026-05-05 20:04 44.95785 8.83046 5991 ft 230 kts 55°
2026-05-05 20:04 44.96780 8.84844 6039 ft 233 kts 53°
2026-05-05 20:04 44.97792 8.86638 5990 ft 233 kts 53°
2026-05-05 20:04 44.98803 8.88429 5959 ft 233 kts 53°
2026-05-05 20:05 44.99811 8.90218 5952 ft 233 kts 53°
2026-05-05 20:05 45.00820 8.92006 5962 ft 233 kts 53°
2026-05-05 20:05 45.01904 8.93701 5941 ft 234 kts 37°
2026-05-05 20:05 45.03397 8.94523 5914 ft 232 kts
2026-05-05 20:06 45.04963 8.94156 5963 ft 228 kts 337°
2026-05-05 20:06 45.06425 8.93279 5998 ft 228 kts 333°
2026-05-05 20:06 45.07855 8.92371 5986 ft 228 kts 333°
2026-05-05 20:06 45.09301 8.91450 5975 ft 228 kts 333°
2026-05-05 20:07 45.10747 8.90530 5968 ft 228 kts 333°
2026-05-05 20:07 45.12194 8.89610 5966 ft 228 kts 333°
2026-05-05 20:07 45.13647 8.88690 5972 ft 229 kts 333°
2026-05-05 20:07 45.15101 8.87767 5967 ft 229 kts 333°
2026-05-05 20:08 45.16553 8.86843 5972 ft 228 kts 333°
2026-05-05 20:08 45.17986 8.85899 5966 ft 226 kts 333°
2026-05-05 20:08 45.19413 8.84958 5960 ft 226 kts 333°
2026-05-05 20:08 45.20839 8.84015 5961 ft 226 kts 333°
2026-05-05 20:09 45.22263 8.83072 5966 ft 226 kts 333°
2026-05-05 20:09 45.23690 8.82127 5987 ft 226 kts 333°
2026-05-05 20:09 45.25103 8.81196 5990 ft 226 kts 333°
2026-05-05 20:09 45.26528 8.80258 5987 ft 226 kts 333°
2026-05-05 20:10 45.27960 8.79318 5993 ft 226 kts 333°
2026-05-05 20:10 45.29396 8.78387 5991 ft 226 kts 337°
2026-05-05 20:10 45.30944 8.78139 5940 ft 227 kts 11°
2026-05-05 20:10 45.32391 8.79005 5921 ft 228 kts 31°
2026-05-05 20:11 45.33740 8.80186 5653 ft 227 kts 29°
2026-05-05 20:11 45.35253 8.80759 5256 ft 227 kts
2026-05-05 20:11 45.36819 8.80543 4892 ft 225 kts 350°
2026-05-05 20:11 45.38326 8.80157 4493 ft 220 kts 349°
2026-05-05 20:12 45.39829 8.79749 4164 ft 212 kts 349°
2026-05-05 20:12 45.41210 8.79372 3991 ft 197 kts 349°
2026-05-05 20:12 45.42499 8.79019 3993 ft 187 kts 349°
2026-05-05 20:12 45.43774 8.78670 4005 ft 187 kts 349°
2026-05-05 20:13 45.45046 8.78320 3991 ft 186 kts 349°
2026-05-05 20:13 45.46315 8.77970 3767 ft 185 kts 349°
2026-05-05 20:13 45.47572 8.77625 3547 ft 184 kts 349°
2026-05-05 20:13 45.48826 8.77279 3329 ft 183 kts 350°
2026-05-05 20:14 45.50082 8.76932 3097 ft 183 kts 350°
2026-05-05 20:14 45.51314 8.76593 2856 ft 182 kts 350°
2026-05-05 20:14 45.52549 8.76251 2642 ft 181 kts 350°
2026-05-05 20:14 45.53791 8.75909 2396 ft 181 kts 350°
2026-05-05 20:15 45.55023 8.75568 2143 ft 178 kts 351°
2026-05-05 20:15 45.56186 8.75246 1902 ft 162 kts 351°
2026-05-05 20:15 45.57259 8.74949 1686 ft 154 kts 350°
2026-05-05 20:15 45.58304 8.74660 1455 ft 151 kts 349°
2026-05-05 20:16 45.59324 8.74377 1258 ft 148 kts 349°
2026-05-05 20:16 45.60333 8.74106 1055 ft 146 kts 348°
2026-05-05 20:16 45.61335 8.73817 843 ft 143 kts 348°
2026-05-05 20:16 45.62276 8.73551 743 ft 119 kts 349°
2026-05-05 20:17 45.62852 8.73397 742 ft 56 kts 349°
2026-05-05 20:17 45.63156 8.73229 744 ft 43 kts 319°
2026-05-05 20:17 45.63299 8.72988 741 ft 28 kts 304°
2026-05-05 20:17 45.63351 8.72880 742 ft 9 kts 303°
2026-05-05 20:18 45.63382 8.72813 743 ft 9 kts 303°
2026-05-05 20:18 45.63411 8.72723 742 ft 12 kts 281°
2026-05-05 20:18 45.63405 8.72587 743 ft 15 kts 257°
2026-05-05 20:18 45.63383 8.72431 743 ft 17 kts 260°
2026-05-05 20:19 45.63359 8.72260 742 ft 18 kts 258°
2026-05-05 20:19 45.63340 8.72119 743 ft 10 kts 259°
2026-05-05 20:19 45.63331 8.72052 741 ft 6 kts 260°
2026-05-05 20:19 45.63328 8.72028 742 ft 2 kts 260°
2026-05-05 20:20 45.63324 8.72005 743 ft 3 kts 249°
2026-05-05 20:20 45.63280 8.71970 743 ft 10 kts 179°
2026-05-05 20:20 45.63207 8.71986 742 ft 12 kts 172°
2026-05-05 20:20 45.63123 8.72007 742 ft 13 kts 171°
2026-05-05 20:21 45.63044 8.72024 743 ft 10 kts 175°
2026-05-05 20:21 45.62998 8.71960 742 ft 11 kts 258°
2026-05-05 20:21 45.62981 8.71845 742 ft 13 kts 257°
2026-05-05 20:21 45.62961 8.71713 743 ft 14 kts 259°
2026-05-05 20:22 45.62943 8.71579 742 ft 11 kts 258°
2026-05-05 20:22 45.62932 8.71502 743 ft 8 kts 261°
2026-05-05 20:22 45.62916 8.71429 743 ft 7 kts 220°
2026-05-05 20:22 45.62890 8.71427 743 ft 3 kts 165°
2026-05-05 20:23 45.62863 8.71436 741 ft 5 kts 167°
2026-05-05 20:23 45.62840 8.71443 742 ft 0 kts 169°